EW4337 Weather Reports


Display with metric or nautical units.
time (UTC)temp
F
wind
direction
speed
MPH
gust
MPH
rain 1hr
in
rain 24hr
in
rain mn
in
humidity
%
barometer
mb
20260509005205 47 81 0.0 2.0 0.00 0.00 0.00 82 1019.2
20260509004704 47 81 1.0 2.0 0.00 0.00 0.00 82 1019.2
20260509004204 47 81 0.0 2.0 0.00 0.00 0.00 82 1019.2
20260509003703 47 83 1.0 2.0 0.00 0.00 0.00 82 1019.1
20260509003203 47 83 1.0 2.0 0.00 0.00 0.00 81 1019.1
20260509002704 47 83 2.0 2.0 0.00 0.00 0.00 81 1019.1
20260509002203 47 78 1.0 3.0 0.00 0.00 0.00 81 1019.0
20260509001703 47 98 1.0 2.0 0.00 0.00 0.00 80 1019.0
20260509001204 47 98 1.0 2.0 0.00 0.00 0.00 80 1019.0
20260509000704 47 98 0.0 0.0 0.00 0.00 0.00 80 1019.0
20260509000204 47 98 0.0 0.0 0.00 0.00 0.00 80 1019.0
20260508235703 48 98 0.0 0.0 0.00 0.00 0.00 80 1019.0
20260508235204 48 98 0.0 0.0 0.00 0.00 0.00 79 1019.0
20260508234704 48 98 0.0 0.0 0.00 0.00 0.00 79 1019.0
20260508234204 48 98 0.0 0.0 0.00 0.00 0.00 79 1019.0
20260508233704 48 98 0.0 0.0 0.00 0.00 0.00 79 1019.0
20260508232204 48 104 0.0 0.0 0.00 0.00 0.00 78 1019.1
20260508231705 49 104 0.0 0.0 0.00 0.00 0.00 78 1019.1
20260508231204 49 104 0.0 0.0 0.00 0.00 0.00 77 1019.1
20260508230705 49 104 0.0 0.0 0.00 0.00 0.00 77 1019.0
20260508230204 49 104 0.0 0.0 0.00 0.00 0.00 76 1019.1
20260508225705 49 104 0.0 0.0 0.00 0.00 0.00 76 1019.1
20260508225205 49 104 0.0 0.0 0.00 0.00 0.00 76 1019.0
20260508224204 50 104 0.0 0.0 0.00 0.00 0.00 75 1019.1
20260508223704 50 104 0.0 0.0 0.00 0.00 0.00 75 1019.1
20260508223204 50 104 0.0 0.0 0.00 0.00 0.00 74 1019.1
20260508222204 50 104 0.0 0.0 0.00 0.00 0.00 74 1019.1
20260508221704 50 104 0.0 0.0 0.00 0.00 0.00 73 1019.1
20260508221204 51 104 0.0 0.0 0.00 0.00 0.00 73 1019.1
20260508220704 51 104 0.0 0.0 0.00 0.00 0.00 72 1019.0
20260508220205 51 104 0.0 0.0 0.00 0.00 0.00 72 1019.0
20260508215703 51 104 0.0 0.0 0.00 0.00 0.00 72 1019.0
20260508215204 51 104 0.0 1.0 0.00 0.00 0.00 71 1019.0
20260508214702 51 104 0.0 0.0 0.00 0.00 0.00 71 1018.9
20260508214203 52 104 0.0 0.0 0.00 0.00 0.00 71 1018.9
20260508213703 52 104 0.0 0.0 0.00 0.00 0.00 70 1018.8
20260508213202 52 104 0.0 0.0 0.00 0.00 0.00 70 1018.8
20260508212203 52 104 0.0 1.0 0.00 0.00 0.00 69 1018.8
20260508211703 52 104 0.0 1.0 0.00 0.00 0.00 69 1018.8
20260508210702 53 102 0.0 1.0 0.00 0.00 0.00 67 1018.8
20260508205703 53 121 1.0 2.0 0.00 0.00 0.00 66 1018.7
20260508205202 54 111 1.0 2.0 0.00 0.00 0.00 65 1018.7
20260508204703 54 95 0.0 0.0 0.00 0.00 0.00 65 1018.7
20260508203703 54 95 0.0 0.0 0.00 0.00 0.00 64 1018.8
20260508203202 54 95 0.0 0.0 0.00 0.00 0.00 63 1018.8
20260508202703 55 95 0.0 1.0 0.00 0.00 0.00 63 1018.8
20260508202203 55 100 1.0 2.0 0.00 0.00 0.00 62 1018.7
20260508201703 55 108 1.0 2.0 0.00 0.00 0.00 61 1018.6
20260508200703 56 105 1.0 3.0 0.00 0.00 0.00 59 1018.6
20260508195703 57 105 0.0 2.0 0.00 0.00 0.00 58 1018.5
20260508195203 57 91 0.0 1.0 0.00 0.00 0.00 57 1018.5
20260508194703 58 85 0.0 3.0 0.00 0.00 0.00 56 1018.4
20260508194203 58 80 1.0 2.0 0.00 0.00 0.00 56 1018.3
20260508193203 59 94 1.0 3.0 0.00 0.00 0.00 54 1018.2
20260508192703 59 87 1.0 2.0 0.00 0.00 0.00 54 1018.2
20260508192203 59 83 0.0 3.0 0.00 0.00 0.00 53 1018.1
20260508191703 60 109 1.0 2.0 0.00 0.00 0.00 52 1018.1
20260508191203 60 99 0.0 1.0 0.00 0.00 0.00 52 1018.0
20260508190703 60 95 1.0 3.0 0.00 0.00 0.00 51 1017.9
20260508190203 61 83 1.0 3.0 0.00 0.00 0.00 50 1017.8
20260508185703 61 75 3.0 5.0 0.00 0.00 0.00 49 1017.7
20260508185203 61 87 2.0 5.0 0.00 0.00 0.00 49 1017.7
20260508184703 61 83 3.0 7.0 0.00 0.00 0.00 48 1017.6
20260508184203 62 85 3.0 7.0 0.00 0.00 0.00 48 1017.6
20260508183203 62 85 5.0 8.0 0.00 0.00 0.00 47 1017.5
20260508182704 62 71 5.0 8.0 0.00 0.00 0.00 46 1017.5
20260508182203 62 79 4.0 10.0 0.00 0.00 0.00 46 1017.5
20260508181703 63 86 5.0 10.0 0.00 0.00 0.00 46 1017.4
20260508180704 63 82 4.0 9.0 0.00 0.00 0.00 45 1017.4
20260508180203 63 97 5.0 8.0 0.00 0.00 0.00 43 1017.3
20260508175703 63 122 2.0 6.0 0.00 0.00 0.00 42 1017.3
20260508175204 63 128 3.0 7.0 0.00 0.00 0.00 42 1017.2
20260508174703 63 99 5.0 12.0 0.00 0.00 0.00 42 1017.2
20260508174204 63 93 3.0 6.0 0.00 0.00 0.00 41 1017.2
20260508173203 64 120 5.0 7.0 0.00 0.00 0.00 41 1017.1
20260508172703 64 124 3.0 7.0 0.00 0.00 0.00 41 1017.1
20260508172204 64 78 5.0 9.0 0.00 0.00 0.00 41 1017.1
20260508171704 64 82 3.0 7.0 0.00 0.00 0.00 41 1017.1
20260508171203 64 96 6.0 12.0 0.00 0.00 0.00 40 1017.1
20260508170704 64 104 5.0 12.0 0.00 0.00 0.00 41 1017.0
20260508170203 64 119 6.0 10.0 0.00 0.00 0.00 40 1017.0
20260508165704 64 105 3.0 7.0 0.00 0.00 0.00 40 1017.0
20260508164703 64 102 5.0 9.0 0.00 0.00 0.00 40 1016.9
20260508164204 65 133 6.0 12.0 0.00 0.00 0.00 39 1016.9
20260508163703 65 57 5.0 9.0 0.00 0.00 0.00 40 1016.9
20260508163204 65 96 6.0 12.0 0.00 0.00 0.00 40 1016.9
20260508162704 65 90 5.0 10.0 0.00 0.00 0.00 39 1016.9
20260508162205 65 121 3.0 7.0 0.00 0.00 0.00 39 1016.9
20260508161204 66 99 5.0 12.0 0.00 0.00 0.00 38 1016.9
20260508160704 66 120 5.0 10.0 0.00 0.00 0.00 38 1016.9
20260508155204 66 88 3.0 8.0 0.00 0.00 0.00 37 1016.9
20260508154703 67 96 6.0 12.0 0.00 0.00 0.00 37 1017.0
20260508154204 67 109 5.0 12.0 0.00 0.00 0.00 37 1017.0
20260508153704 67 125 5.0 12.0 0.00 0.00 0.00 36 1017.1
20260508153204 67 87 6.0 10.0 0.00 0.00 0.00 36 1017.1
20260508152704 67 110 7.0 10.0 0.00 0.00 0.00 36 1017.0
20260508152204 67 91 5.0 10.0 0.00 0.00 0.00 36 1017.1
20260508151704 67 89 3.0 8.0 0.00 0.00 0.00 36 1017.1
20260508151204 67 98 7.0 14.0 0.00 0.00 0.00 35 1017.1
20260508150704 67 84 9.0 13.0 0.00 0.00 0.00 35 1017.2
20260508150204 68 110 3.0 7.0 0.00 0.00 0.00 35 1017.2
20260508145704 67 140 5.0 13.0 0.00 0.00 0.00 35 1017.2
20260508145204 68 98 8.0 12.0 0.00 0.00 0.00 35 1017.2
20260508144704 68 113 6.0 12.0 0.00 0.00 0.00 35 1017.2
20260508144203 67 77 8.0 13.0 0.00 0.00 0.00 35 1017.2
20260508143704 67 92 7.0 12.0 0.00 0.00 0.00 35 1017.2
20260508143204 67 120 2.0 8.0 0.00 0.00 0.00 35 1017.2
20260508142704 67 44 7.0 12.0 0.00 0.00 0.00 34 1017.3
20260508142204 68 90 7.0 12.0 0.00 0.00 0.00 35 1017.3
20260508141203 68 103 7.0 13.0 0.00 0.00 0.00 33 1017.3
20260508140702 68 87 5.0 12.0 0.00 0.00 0.00 33 1017.4
20260508140202 68 82 8.0 17.0 0.00 0.00 0.00 34 1017.4
20260508135703 68 35 7.0 10.0 0.00 0.00 0.00 34 1017.4
20260508135203 67 96 11.0 15.0 0.00 0.00 0.00 36 1017.5
20260508134702 67 42 9.0 14.0 0.00 0.00 0.00 34 1017.5
20260508134203 67 89 6.0 12.0 0.00 0.00 0.00 34 1017.5
20260508133702 67 49 7.0 12.0 0.00 0.00 0.00 33 1017.5
20260508133202 67 68 7.0 12.0 0.00 0.00 0.00 33 1017.6
20260508132202 67 67 9.0 17.0 0.00 0.00 0.00 33 1017.6
20260508131702 68 73 6.0 15.0 0.00 0.00 0.00 33 1017.7
20260508131202 68 74 7.0 14.0 0.00 0.00 0.00 33 1017.7
20260508130702 67 80 10.0 15.0 0.00 0.00 0.00 33 1017.6
20260508130202 66 56 4.0 13.0 0.00 0.00 0.00 33 1017.6
20260508125702 66 59 5.0 13.0 0.00 0.00 0.00 32 1017.6
20260508124702 66 65 9.0 17.0 0.00 0.00 0.00 33 1017.7
20260508123703 66 65 7.0 13.0 0.00 0.00 0.00 33 1017.8
20260508123202 66 81 6.0 16.0 0.00 0.00 0.00 34 1017.9
20260508122702 65 88 8.0 16.0 0.00 0.00 0.00 34 1017.8
20260508122202 66 65 10.0 16.0 0.00 0.00 0.00 33 1017.8
20260508121203 66 82 9.0 14.0 0.00 0.00 0.00 33 1017.9
20260508120703 66 101 7.0 18.0 0.00 0.00 0.00 34 1017.9
20260508120203 66 63 8.0 13.0 0.00 0.00 0.00 35 1017.9
20260508115703 66 77 12.0 16.0 0.00 0.00 0.00 35 1017.9
20260508114702 65 87 9.0 16.0 0.00 0.00 0.00 37 1017.9
20260508113703 64 105 10.0 17.0 0.00 0.00 0.00 39 1017.9
20260508113202 65 38 9.0 15.0 0.00 0.00 0.00 38 1018.0
20260508112702 66 76 7.0 14.0 0.00 0.00 0.00 38 1018.1
20260508112202 65 86 9.0 14.0 0.00 0.00 0.00 37 1018.1
20260508111703 65 95 6.0 13.0 0.00 0.00 0.00 37 1018.1
20260508111203 65 93 8.0 16.0 0.00 0.00 0.00 37 1018.2
20260508110705 64 86 10.0 16.0 0.00 0.00 0.00 40 1018.1
20260508110203 65 81 9.0 16.0 0.00 0.00 0.00 40 1018.1
20260508105703 65 91 7.0 15.0 0.00 0.00 0.00 40 1018.2
20260508105203 65 44 5.0 16.0 0.00 0.00 0.00 42 1018.2
20260508104703 65 86 6.0 16.0 0.00 0.00 0.00 43 1018.3
20260508104203 64 81 12.0 18.0 0.00 0.00 0.00 43 1018.2
20260508103703 64 87 10.0 16.0 0.00 0.00 0.00 43 1018.3
20260508102703 64 74 10.0 16.0 0.00 0.00 0.00 44 1018.3
20260508102203 64 88 10.0 20.0 0.00 0.00 0.00 44 1018.4
20260508101203 63 84 10.0 15.0 0.00 0.00 0.00 47 1018.4
20260508100703 64 55 12.0 20.0 0.00 0.00 0.00 48 1018.4
20260508100203 63 64 7.0 13.0 0.00 0.00 0.00 49 1018.4
20260508095703 63 78 9.0 16.0 0.00 0.00 0.00 48 1018.4
20260508095204 63 103 9.0 14.0 0.00 0.00 0.00 47 1018.3
20260508094203 62 77 11.0 18.0 0.00 0.00 0.00 47 1018.5
20260508092203 62 55 9.0 15.0 0.00 0.00 0.00 47 1018.6
20260508091703 62 83 10.0 16.0 0.00 0.00 0.00 46 1018.6
20260508091204 62 81 10.0 16.0 0.00 0.00 0.00 46 1018.6
20260508090703 61 93 9.0 20.0 0.00 0.00 0.00 47 1018.6
20260508090203 61 86 9.0 16.0 0.00 0.00 0.00 48 1018.6
20260508085704 61 93 9.0 15.0 0.00 0.00 0.00 49 1018.6
20260508085204 61 120 8.0 14.0 0.00 0.00 0.00 50 1018.7
20260508084704 61 92 7.0 12.0 0.00 0.00 0.00 54 1018.8
20260508083703 60 100 6.0 10.0 0.00 0.00 0.00 56 1018.8
20260508083203 59 108 8.0 13.0 0.00 0.00 0.00 56 1018.8
20260508082704 59 97 7.0 13.0 0.00 0.00 0.00 55 1018.8
20260508082204 59 89 7.0 12.0 0.00 0.00 0.00 58 1018.8
20260508081704 58 125 7.0 12.0 0.00 0.00 0.00 60 1018.9
20260508080204 57 113 8.0 13.0 0.00 0.00 0.00 65 1018.9
20260508075704 57 110 5.0 12.0 0.00 0.00 0.00 68 1018.9
20260508075203 56 103 6.0 12.0 0.00 0.00 0.00 69 1018.9
20260508074703 56 82 8.0 14.0 0.00 0.00 0.00 70 1018.9
20260508074203 56 117 6.0 13.0 0.00 0.00 0.00 70 1018.9
20260508073704 55 110 7.0 12.0 0.00 0.00 0.00 72 1018.9
20260508073203 55 100 8.0 12.0 0.00 0.00 0.00 72 1018.9
20260508072703 55 109 6.0 13.0 0.00 0.00 0.00 73 1018.8
20260508071204 53 85 7.0 12.0 0.00 0.00 0.00 78 1018.8
20260508070703 53 91 6.0 10.0 0.00 0.00 0.00 79 1018.8
20260508065704 52 91 6.0 10.0 0.00 0.00 0.00 81 1018.7
20260508065203 52 81 4.0 8.0 0.00 0.00 0.00 82 1018.6
20260508063203 50 102 6.0 9.0 0.00 0.00 0.00 85 1018.5
20260508062204 50 88 4.0 9.0 0.00 0.00 0.00 86 1018.4
20260508060704 48 83 7.0 10.0 0.00 0.00 0.00 89 1018.3
20260508060203 48 85 7.0 12.0 0.00 0.00 0.00 90 1018.2
20260508055703 47 83 5.0 9.0 0.00 0.00 0.00 91 1018.2
20260508055203 47 112 3.0 9.0 0.00 0.00 0.00 91 1018.2
20260508054703 46 85 6.0 8.0 0.00 0.00 0.00 91 1018.2
20260508054204 46 89 2.0 5.0 0.00 0.00 0.00 91 1018.2
20260508053704 46 78 3.0 6.0 0.00 0.00 0.00 91 1018.2
20260508053204 45 80 3.0 7.0 0.00 0.00 0.00 91 1018.1
20260508052204 45 103 2.0 6.0 0.00 0.00 0.00 91 1018.1
20260508051704 44 103 2.0 3.0 0.00 0.00 0.00 91 1018.0
20260508051204 44 81 2.0 3.0 0.00 0.00 0.00 91 1018.0
20260508050703 44 93 1.0 3.0 0.00 0.00 0.00 91 1018.0
20260508050203 44 99 1.0 3.0 0.00 0.00 0.00 91 1018.0
20260508045703 44 108 2.0 3.0 0.00 0.00 0.00 91 1017.9
20260508045203 43 101 2.0 3.0 0.00 0.00 0.00 91 1017.9
20260508044702 43 113 1.0 3.0 0.00 0.00 0.00 91 1017.9
20260508044203 43 99 2.0 3.0 0.00 0.00 0.00 91 1017.9
20260508043703 43 89 1.0 3.0 0.00 0.00 0.00 91 1017.8
20260508043203 43 84 2.0 3.0 0.00 0.00 0.00 91 1017.9
20260508042703 43 86 2.0 3.0 0.00 0.00 0.00 90 1017.9
20260508042203 43 99 1.0 3.0 0.00 0.00 0.00 91 1017.8
20260508041703 43 93 2.0 3.0 0.00 0.00 0.00 90 1017.8
20260508041203 43 103 2.0 3.0 0.00 0.00 0.00 90 1017.8
20260508040703 43 93 1.0 3.0 0.00 0.00 0.00 90 1017.7
20260508035703 43 103 2.0 3.0 0.00 0.00 0.00 90 1017.6
20260508034703 43 96 2.0 3.0 0.00 0.00 0.00 90 1017.6
20260508034203 43 92 2.0 3.0 0.00 0.00 0.00 90 1017.7
20260508033203 43 104 1.0 2.0 0.00 0.00 0.00 89 1017.7
20260508032703 43 104 1.0 3.0 0.00 0.00 0.00 89 1017.6
20260508032203 43 104 1.0 3.0 0.00 0.00 0.00 89 1017.6
20260508031703 43 86 2.0 3.0 0.00 0.00 0.00 89 1017.6
20260508031203 43 91 1.0 2.0 0.00 0.00 0.00 89 1017.6
20260508030704 43 96 1.0 3.0 0.00 0.00 0.00 89 1017.6
20260508030204 43 84 1.0 2.0 0.00 0.00 0.00 88 1017.6
20260508025703 43 84 1.0 2.0 0.00 0.00 0.00 88 1017.7
20260508025203 43 84 0.0 2.0 0.00 0.00 0.00 88 1017.6
20260508024704 44 84 1.0 3.0 0.00 0.00 0.00 88 1017.5
20260508024204 43 96 1.0 3.0 0.00 0.00 0.00 88 1017.6
20260508023204 44 86 1.0 2.0 0.00 0.00 0.00 88 1017.6
20260508022703 44 101 0.0 0.0 0.00 0.00 0.00 87 1017.6
20260508022204 44 101 0.0 0.0 0.00 0.00 0.00 87 1017.6
20260508021703 44 101 0.0 0.0 0.00 0.00 0.00 87 1017.6
20260508020703 44 101 0.0 0.0 0.00 0.00 0.00 87 1017.7
20260508020203 44 101 0.0 0.0 0.00 0.00 0.00 87 1017.7
20260508015704 44 101 0.0 0.0 0.00 0.00 0.00 87 1017.7
20260508015204 44 101 0.0 0.0 0.00 0.00 0.00 87 1017.7
20260508014704 44 101 0.0 0.0 0.00 0.00 0.00 86 1017.7
20260508014203 44 101 0.0 0.0 0.00 0.00 0.00 86 1017.7
20260508013703 45 101 0.0 0.0 0.00 0.00 0.00 86 1017.7
20260508013203 45 101 0.0 0.0 0.00 0.00 0.00 86 1017.7
20260508012703 45 101 0.0 0.0 0.00 0.00 0.00 85 1017.7
20260508012204 45 101 0.0 0.0 0.00 0.00 0.00 85 1017.7
20260508011704 46 101 0.0 0.0 0.00 0.00 0.00 85 1017.7
20260508010704 46 101 0.0 0.0 0.00 0.00 0.00 84 1017.7
20260508010203 46 101 0.0 0.0 0.00 0.00 0.00 84 1017.7